カタログに戻る

STARLINK-30516

運用中通信VLEO
NORAD 57984·PAYLOAD·🇺🇸 United States

打ち上げ Sep 30, 2023 から Cape Canaveral Space Force Station

Loading…

次のパス (今後24時間)

TLE

最新Source: CelesTrak SupGP

元期: Sep 14, 2026, 22:25 UTC

1 57984C 23151W   26257.93451389 -.00053437  00000+0 -19352-2 0  2571
2 57984  43.0014   5.3174 0001665 269.1993 181.2204 15.27608550    12

AllMySatでSTARLINK-30516をリアルタイム追跡

Download on the App Store